User: anonymous   Login
Location: Ostrava
(49.8330°N, 18.2830°E)
Time: 10:38:34
(UTC+01:00)
Language:

Cosmos 1400 Rocket - Orbit

View from above orbital plane
View from above orbital plane
View from above satellite
View from above satellite

Ground track
Ground track

The orbit data is extracted from the following two-line orbital elements,

1 13403U 82079B   18049.57492400 +.00000770 +00000-0 +49526-4 0  9994
2 13403 081.1725 347.0931 0033483 184.5956 175.4966 15.06782480933603
Epoch (UTC): 18 February 2018 13:47:53
Eccentricity: 0.0033483
inclination: 81.1725°
perigee height: 523 km
apogee height: 569 km
right ascension of ascending node: 347.0931°
argument of perigee: 184.5956°
revolutions per day: 15.06782480
mean anomaly at epoch: 175.4966°
orbit number at epoch: 93360

The dashed part of the orbit path shows where the satellite is in the earth's shadow,  

DLR